Regional Weather Roundup
Issued by NWS Green Bay, WI

Home | Current Version | Previous Version | Graphics & Text | Print | Product List | Glossary Off
Versions: 1 2 3 4 5 6 7 8 9 10 11 12 13 14 15 16 17 18 19 20 21 22 23 24 25 26 27 28 29 30 31 32 33 34 35 36 37 38 39 40 41 42 43 44 45 46 47 48 49 50

090
ASUS43 KGRB 241359
RWRGRB

NORTH-CENTRAL AND NORTHEAST WISCONSIN REGIONAL WEATHER ROUNDUP
NATIONAL WEATHER SERVICE GREEN BAY WI
800 AM CST TUE JAN 24 2017

WIZ005-009-010>012-018-019-241500-
NORTH CENTRAL WISCONSIN

CITY           SKY/WX    TMP DP  RH WIND       PRES   REMARKS
IRONWOOD       CLOUDY    32  32 100 W5        29.85R
MANITOWISH WTR NOT AVBL
ARBOR VITAE    NOT AVBL
EAGLE RIVER    NOT AVBL
LAND O LAKES   NOT AVBL
RHINELANDER    CLOUDY    34  32  92 NW6       29.82S
PHILLIPS       CLOUDY    31  31 100 CALM      29.84R
ANTIGO         NOT AVBL
TOMAHAWK       NOT AVBL
MERRILL        NOT AVBL
$$

WIZ013-073-241500-
NORTHEAST WISCONSIN

CITY           SKY/WX    TMP DP  RH WIND       PRES   REMARKS
IRON MOUNTAIN  CLOUDY    34  31  88 NW5       29.80R
MARINETTE      NOT AVBL
$$

WIZ017-030-035>037-045-241500-
CENTRAL WISCONSIN

CITY           SKY/WX    TMP DP  RH WIND       PRES   REMARKS
MEDFORD        NOT AVBL
WAUSAU         CLOUDY    33  31  92 W7        29.84R
MOSINEE        CLOUDY    32  32 100 W3        29.86R
MARSHFIELD     CLOUDY    32  31  96 W5        29.85R FOG
WISC RAPIDS    CLOUDY    33  33 100 W3        29.88R
STEVENS POINT  NOT AVBL
WAUPACA        NOT AVBL
SHAWANO        NOT AVBL
CLINTONVILLE   CLOUDY    34  34 100 NW3       29.85R
WAUTOMA        CLOUDY    34  33  96 W3        29.87R
$$

WIZ038-039-048-051-241500-
FOX VALLEY

CITY           SKY/WX    TMP DP  RH WIND       PRES   REMARKS
NWS GREEN BAY  CLOUDY    37  35  92 W9        29.85R
APPLETON       CLOUDY    34  34 100 NW7       29.83R FOG
OSHKOSH        CLOUDY    35  33  92 W7        29.85R FOG
FOND DU LAC    CLOUDY    35  32  88 W7        29.86R FOG
$$

WIZ022-050-052-241500-
EAST CENTRAL WISCONSIN

CITY           SKY/WX    TMP DP  RH WIND       PRES   REMARKS
EPHRAIM        NOT AVBL
WASHINGTON ISL NOT AVBL
STURGEON BAY   FOG       34  34 100 CALM      29.83S VSB 1/2
MANITOWOC      NOT AVBL
SHEBOYGAN      CLOUDY    35  33  92 W6        29.85R FOG
$$

LMZ563-521-522-541>543-241500-
LAKESHORE

STATION/POSITION TIME  TEMP    WIND        PRES    VSBY  WAVE
                       AIR SEA DIR/SP/G                  HT/PER
                 (UTC) (F)     (DEG/KT/KT) (MB)    (MI)  (FT/S)
SHEBOYGAN LKSHOR 1300   36     290/  8/  9 1010.7R
KEWAUNEE LKSHORE 1330   35     300/  4/  6 1009.7R
ALGOMA MARINA    1254             CALM       N/A
NORTHPORT PIER   1340   35     280/  6/  8 1009.8R
SISTER BAY LKSHO 1305   33        CALM       N/A
MENOMINEE LKSHOR 1330   34     300/  4/  5 1009.3R
$$




USA.gov is the U.S. government's official web portal to all federal, state and local government web resources and services.